Shenandoah, IA

11:56 AM CDT on April 23, 2017 (GMT -0500)
Shenandoah Municipal

Weather History for KSDA - November, 2013

Change the Weather History Date:

Wednesday, November 6, 2013

  Actual Average Record
Temperature  
Mean Temperature 37 °F -  
Max Temperature 44 °F 52 °F 82 °F (2001)
Min Temperature 30 °F 33 °F 10 °F (1959)
Degree Days  
Heating Degree Days 28    
Moisture  
Dew Point 33 °F    
Average Humidity 82    
Maximum Humidity 93    
Minimum Humidity 61    
Precipitation  
Precipitation 0.00 in - - ()
Sea Level Pressure  
Sea Level Pressure 30.20 in    
Wind  
Wind Speed 10 mph (WNW)    
Max Wind Speed 17 mph    
Max Gust Speed 26 mph    
Visibility 10 miles    
Events      
Averages and records for this station are not official NWS values.
T = Trace of Precipitation, MM = Missing Value Source: NWS Daily Summary

Daily Weather History Graph

Daily Weather History Graph

Search for Another Location

Airport or City:

Trip Planner

Search our weather history database for the weather conditions in past years. The results will help you decide how hot, cold, wet, or windy it might be!

Date:

Astronomy

Nov. 06, 2013 Rise Set
Actual Time 6:58 AM CST 5:11 PM CST
Civil Twilight 6:29 AM CST 5:40 PM CST
Nautical Twilight 5:56 AM CST 6:13 PM CST
Astronomical Twilight 5:24 AM CST 6:45 PM CST
Moon 10:14 AM CST (11/6) 8:16 PM CST (11/6)
Length of Visible Light 11h 11m
Length of Day
10h 13m
Waxing Crescent, 14% of the Moon is Illuminated
Nov 6
Waxing Crescent
Nov 9
First Quarter
Nov 17
Full
Nov 25
Last Quarter
Dec 2
New

Hourly Weather History & Observations

Time (CST) Temp. Windchill Dew Point Humidity Pressure Visibility Wind Dir Wind Speed Gust Speed Precip Events Conditions
12:15 AM 37.4 °F 28.5 °F 35.6 °F 93% 30.02 in 10.0 mi NNW 15.0 mph 24.2 mph N/A   Overcast
12:35 AM 37.4 °F 28.2 °F 35.6 °F 93% 30.01 in 10.0 mi NNW 16.1 mph 25.3 mph N/A   Overcast
12:55 AM 37.4 °F 28.5 °F 35.6 °F 93% 30.02 in 7.0 mi NNW 15.0 mph 23.0 mph N/A   Overcast
1:15 AM 37.4 °F 28.2 °F 35.6 °F 93% 30.03 in 5.0 mi NNW 16.1 mph 26.5 mph N/A   Overcast
1:55 AM 37.4 °F 28.9 °F 33.8 °F 87% 30.06 in 7.0 mi NW 13.8 mph 23.0 mph N/A   Overcast
2:15 AM 35.6 °F 27.1 °F 33.8 °F 93% 30.05 in 6.0 mi NW 12.7 mph 20.7 mph N/A   Overcast
2:35 AM 35.6 °F 25.9 °F 33.8 °F 93% 30.04 in 4.0 mi NNW 16.1 mph 25.3 mph N/A   Overcast
2:55 AM 35.6 °F 26.6 °F 33.8 °F 93% 30.05 in 9.0 mi NNW 13.8 mph 20.7 mph N/A   Overcast
3:15 AM 35.6 °F 26.6 °F 33.8 °F 93% 30.06 in 10.0 mi NNW 13.8 mph 23.0 mph N/A   Overcast
3:35 AM 35.6 °F 25.5 °F 33.8 °F 93% 30.08 in 10.0 mi NW 17.3 mph 25.3 mph N/A   Overcast
3:55 AM 35.6 °F 26.2 °F 32.0 °F 87% 30.09 in 10.0 mi NNW 15.0 mph 23.0 mph N/A   Overcast
4:15 AM 35.6 °F 26.6 °F 32.0 °F 87% 30.08 in 10.0 mi NNW 13.8 mph 19.6 mph N/A   Overcast
4:35 AM 35.6 °F 27.1 °F 32.0 °F 87% 30.09 in 10.0 mi NNW 12.7 mph 18.4 mph N/A   Overcast
4:55 AM 35.6 °F 28.0 °F 32.0 °F 87% 30.09 in 10.0 mi North 10.4 mph 17.3 mph N/A   Mostly Cloudy
5:15 AM 35.6 °F 29.2 °F 32.0 °F 87% 30.09 in 10.0 mi North 8.1 mph - N/A   Scattered Clouds
5:35 AM 35.6 °F 28.6 °F 32.0 °F 87% 30.11 in 10.0 mi NW 9.2 mph 16.1 mph N/A   Mostly Cloudy
5:55 AM 35.6 °F 27.5 °F 32.0 °F 87% 30.12 in 10.0 mi NW 11.5 mph - N/A   Overcast
6:15 AM 35.6 °F 28.0 °F 32.0 °F 87% 30.13 in 10.0 mi NW 10.4 mph - N/A   Overcast
6:35 AM 35.6 °F 29.2 °F 32.0 °F 87% 30.13 in 10.0 mi NNW 8.1 mph 13.8 mph N/A   Overcast
6:55 AM 35.6 °F 29.2 °F 32.0 °F 87% 30.15 in 10.0 mi NW 8.1 mph 13.8 mph N/A   Overcast
7:15 AM 35.6 °F 29.2 °F 32.0 °F 87% 30.17 in - NW 8.1 mph - N/A   Overcast
7:35 AM 35.6 °F 29.2 °F 32.0 °F 87% 30.19 in 10.0 mi NNW 8.1 mph 16.1 mph N/A   Overcast
7:55 AM 35.6 °F 28.6 °F 32.0 °F 87% 30.20 in 10.0 mi NNW 9.2 mph - N/A   Overcast
8:15 AM 35.6 °F 28.6 °F 32.0 °F 87% 30.21 in 10.0 mi NW 9.2 mph 15.0 mph N/A   Overcast
8:35 AM 35.6 °F 28.0 °F 32.0 °F 87% 30.21 in 10.0 mi NW 10.4 mph 16.1 mph N/A   Overcast
8:55 AM 37.4 °F 30.8 °F 32.0 °F 81% 30.23 in 10.0 mi NNW 9.2 mph 16.1 mph N/A   Overcast
9:15 AM 37.4 °F 29.3 °F 32.0 °F 81% 30.23 in 10.0 mi NW 12.7 mph 19.6 mph N/A   Overcast
9:35 AM 37.4 °F 30.3 °F 32.0 °F 81% 30.24 in 10.0 mi NNW 10.4 mph 17.3 mph N/A   Overcast
9:55 AM 37.4 °F 29.8 °F 32.0 °F 81% 30.24 in 10.0 mi NNW 11.5 mph - N/A   Overcast
10:15 AM 39.2 °F 32.5 °F 32.0 °F 75% 30.24 in 10.0 mi NW 10.4 mph - N/A   Overcast
10:35 AM 39.2 °F 33.0 °F 32.0 °F 75% 30.24 in 10.0 mi NW 9.2 mph - N/A   Overcast
10:55 AM 39.2 °F 33.6 °F 32.0 °F 75% 30.25 in 10.0 mi NNW 8.1 mph 13.8 mph N/A   Overcast
11:15 AM 41.0 °F 36.4 °F 32.0 °F 70% 30.25 in 10.0 mi Variable 6.9 mph - N/A   Overcast
11:35 AM 41.0 °F 35.8 °F 33.8 °F 76% 30.25 in 10.0 mi NNW 8.1 mph - N/A   Overcast
11:55 AM 41.0 °F 35.2 °F 32.0 °F 70% 30.25 in 10.0 mi NNW 9.2 mph 15.0 mph N/A   Overcast
12:15 PM 42.8 °F 38.6 °F 32.0 °F 66% 30.24 in 10.0 mi Variable 6.9 mph 12.7 mph N/A   Overcast
12:35 PM 42.8 °F 38.0 °F 32.0 °F 66% 30.24 in 10.0 mi NW 8.1 mph - N/A   Overcast
12:55 PM 41.0 °F 35.8 °F 32.0 °F 70% 30.23 in 10.0 mi NW 8.1 mph - N/A   Overcast
1:15 PM 42.8 °F 38.6 °F 32.0 °F 66% 30.23 in 10.0 mi Variable 6.9 mph - N/A   Overcast
1:35 PM 42.8 °F 37.0 °F 33.8 °F 70% 30.24 in 10.0 mi West 10.4 mph - N/A   Overcast
1:55 PM 44.6 °F 40.2 °F 33.8 °F 66% 30.24 in 10.0 mi WNW 8.1 mph - N/A   Overcast
2:15 PM 44.6 °F 40.7 °F 33.8 °F 66% 30.24 in 10.0 mi Variable 6.9 mph 13.8 mph N/A   Overcast
2:35 PM 44.6 °F 40.2 °F 33.8 °F 66% 30.24 in 10.0 mi NW 8.1 mph - N/A   Overcast
2:55 PM 44.6 °F 39.7 °F 33.8 °F 66% 30.25 in 10.0 mi West 9.2 mph - N/A   Overcast
3:15 PM 44.6 °F 39.7 °F 32.0 °F 61% 30.25 in 10.0 mi WNW 9.2 mph - N/A   Overcast
3:35 PM 44.6 °F 40.2 °F 33.8 °F 66% 30.25 in 10.0 mi WNW 8.1 mph - N/A   Overcast
3:55 PM 44.6 °F 40.7 °F 33.8 °F 66% 30.25 in 10.0 mi West 6.9 mph - N/A   Overcast
4:15 PM 44.6 °F 40.2 °F 33.8 °F 66% 30.25 in 10.0 mi West 8.1 mph - N/A   Overcast
4:35 PM 42.8 °F 38.6 °F 33.8 °F 70% 30.25 in 10.0 mi West 6.9 mph - N/A   Overcast
4:55 PM 41.0 °F 38.0 °F 33.8 °F 76% 30.25 in 10.0 mi West 4.6 mph - N/A   Mostly Cloudy
5:15 PM 41.0 °F - 33.8 °F 76% 30.24 in 10.0 mi Calm Calm - N/A   Overcast
5:35 PM 41.0 °F - 33.8 °F 76% 30.25 in 10.0 mi Calm Calm - N/A   Overcast
5:55 PM 41.0 °F - 33.8 °F 76% 30.26 in 10.0 mi Calm Calm - N/A   Overcast
6:15 PM 39.2 °F 37.0 °F 33.8 °F 81% 30.27 in 10.0 mi WSW 3.5 mph - N/A   Overcast
6:35 PM 39.2 °F - 33.8 °F 81% 30.27 in 10.0 mi Calm Calm - N/A   Overcast
6:55 PM 39.2 °F 37.0 °F 35.6 °F 87% 30.28 in 10.0 mi SW 3.5 mph - N/A   Overcast
7:15 PM 39.2 °F - 35.6 °F 87% 30.28 in 10.0 mi Calm Calm - N/A   Overcast
7:35 PM 39.2 °F - 35.6 °F 87% 30.27 in 10.0 mi Calm Calm - N/A   Overcast
7:55 PM 39.2 °F - 33.8 °F 81% 30.28 in 10.0 mi Calm Calm - N/A   Overcast
8:15 PM 37.4 °F 34.9 °F 33.8 °F 87% 30.28 in 10.0 mi SW 3.5 mph - N/A   Overcast
8:35 PM 37.4 °F 34.9 °F 33.8 °F 87% 30.28 in 10.0 mi SSW 3.5 mph - N/A   Overcast
8:55 PM 33.8 °F 27.7 °F 32.0 °F 93% 30.28 in 10.0 mi SW 6.9 mph - N/A   Scattered Clouds
9:15 PM 33.8 °F 29.6 °F 32.0 °F 93% 30.29 in 10.0 mi WSW 4.6 mph - N/A   Clear
9:35 PM 33.8 °F 29.6 °F 32.0 °F 93% 30.30 in 10.0 mi SW 4.6 mph - N/A   Clear
9:55 PM 33.8 °F 29.6 °F 32.0 °F 93% 30.30 in 10.0 mi SW 4.6 mph - N/A   Clear
10:15 PM 32.0 °F 28.7 °F 30.2 °F 93% 30.30 in 10.0 mi SW 3.5 mph - N/A   Clear
10:35 PM 33.8 °F - 30.2 °F 87% 30.29 in 10.0 mi Calm Calm - N/A   Clear
10:55 PM 33.8 °F 29.6 °F 30.2 °F 87% 30.29 in 10.0 mi SSW 4.6 mph - N/A   Clear
11:15 PM 32.0 °F 27.5 °F 30.2 °F 93% 30.30 in 10.0 mi SSW 4.6 mph - N/A   Clear
11:35 PM 30.2 °F 25.4 °F 28.4 °F 93% 30.30 in 10.0 mi SW 4.6 mph - N/A   Clear
11:55 PM 30.2 °F 25.4 °F 28.4 °F 93% 30.30 in 10.0 mi South 4.6 mph - N/A   Clear